Precipitable_Water
1.60 1.84 1.93 1.90 1.84 1.86 1.75 1.76 1.75 1.69 1.72 1.62 1.54 1.55 1.58 1.59 1.56 1.52 1.51 1.47 1.45 1.51 1.56 1.57 1.52 1.54 1.60 1.68 1.73 1.76 1.80 1.76 1.77 1.79 1.83 1.79 1.59 1.59 1.64 1.63 1.52 1.46 1.52
1.66 1.86 1.90 1.88 1.84 1.86 1.70 1.63 1.73 1.64 1.60 1.54 1.59 1.66 1.67 1.64 1.54 1.43 1.57 1.56 1.57 1.53 1.54 1.60 1.60 1.62 1.61 1.63 1.68 1.73 1.85 1.85 1.83 1.83 1.88 1.73 1.67 1.62 1.62 1.53 1.58 1.50 1.46
1.64 1.82 1.86 1.83 1.83 1.89 1.80 1.73 1.72 1.54 1.52 1.52 1.58 1.66 1.68 1.71 1.74 1.67 1.80 1.80 1.63 1.81 1.79 1.67 1.68 1.69 1.66 1.72 1.74 1.77 1.95 1.86 1.78 1.83 1.79 1.67 1.70 1.71 1.57 1.60 1.60 1.32 1.23
1.62 1.78 1.80 1.78 1.83 1.89 1.89 1.74 1.64 1.49 1.60 1.61 1.70 1.76 1.84 1.84 1.78 1.79 1.75 1.75 1.75 1.71 1.82 1.68 1.65 1.68 1.76 1.83 1.78 1.96 2.06 1.89 1.75 1.79 1.73 1.74 1.69 1.59 1.47 1.49 1.59 1.62 1.63
1.62 1.72 1.75 1.76 1.84 1.81 1.68 1.57 1.58 1.69 1.72 1.77 1.81 1.80 1.67 1.60 1.58 1.65 1.68 1.74 1.77 1.71 1.68 1.76 1.67 1.73 1.73 1.78 1.89 2.06 2.06 1.87 1.74 1.74 1.69 1.65 1.60 1.43 1.69 1.54 1.53 1.60 1.52
1.60 1.68 1.75 1.79 1.79 1.69 1.63 1.59 1.61 1.75 1.73 1.78 1.80 1.66 1.54 1.53 1.59 1.76 1.76 1.78 1.72 1.72 1.65 1.60 1.61 1.71 1.70 1.87 1.99 2.10 2.08 1.86 1.78 1.75 1.72 1.70 1.55 1.54 1.50 1.48 1.69 1.48 1.31
1.55 1.63 1.70 1.65 1.48 1.50 1.61 1.76 1.73 1.79 1.70 1.78 1.64 1.60 1.54 1.53 1.69 1.87 1.92 1.78 1.69 1.63 1.53 1.56 1.67 1.77 1.87 1.97 2.08 2.08 1.93 1.90 1.70 1.71 1.67 1.60 1.58 1.73 1.68 1.69 1.73 1.49 1.40
1.56 1.58 1.61 1.54 1.49 1.82 1.79 1.78 1.81 1.79 1.74 1.63 1.52 1.57 1.53 1.61 1.72 1.84 1.82 1.62 1.55 1.43 1.44 1.54 1.73 1.76 1.95 2.00 1.97 1.93 1.86 1.78 1.62 1.65 1.59 1.60 1.60 1.64 1.68 1.74 1.55 1.54 1.51
1.61 1.53 1.45 1.46 1.68 1.70 1.83 1.79 1.78 1.71 1.59 1.48 1.46 1.44 1.53 1.60 1.73 1.88 1.74 1.57 1.50 1.45 1.51 1.67 1.65 1.68 1.78 1.92 1.82 1.79 1.74 1.61 1.56 1.57 1.59 1.65 1.75 1.73 1.62 1.52 1.71 1.60 1.63
1.56 1.41 1.33 1.54 1.60 1.72 1.77 1.77 1.73 1.61 1.47 1.35 1.42 1.44 1.47 1.61 1.72 1.81 1.77 1.71 1.57 1.44 1.59 1.71 1.71 1.83 1.87 1.86 1.82 1.79 1.64 1.55 1.52 1.56 1.59 1.58 1.53 1.46 1.54 1.59 1.51 1.43 1.40
1.29 1.27 1.39 1.46 1.57 1.65 1.68 1.75 1.64 1.51 1.42 1.44 1.47 1.55 1.57 1.56 1.66 1.68 1.77 1.75 1.67 1.60 1.55 1.61 1.74 1.79 1.87 1.85 1.80 1.69 1.54 1.47 1.46 1.51 1.49 1.45 1.54 1.61 1.64 1.58 1.53 1.57 1.39
1.10 1.22 1.33 1.41 1.47 1.60 1.63 1.68 1.54 1.46 1.47 1.60 1.52 1.61 1.60 1.59 1.65 1.66 1.71 1.74 1.71 1.77 1.76 1.61 1.65 1.77 1.86 1.75 1.72 1.62 1.54 1.47 1.40 1.40 1.42 1.43 1.40 1.41 1.40 1.54 1.51 1.42 1.46
1.26 1.24 1.31 1.35 1.45 1.53 1.54 1.53 1.47 1.50 1.54 1.70 1.62 1.60 1.55 1.55 1.61 1.72 1.68 1.69 1.78 1.86 1.80 1.70 1.64 1.65 1.65 1.70 1.65 1.55 1.59 1.51 1.39 1.39 1.35 1.37 1.45 1.44 1.35 1.38 1.38 1.41 1.35
1.26 1.21 1.23 1.31 1.42 1.49 1.51 1.45 1.40 1.44 1.66 1.73 1.73 1.67 1.67 1.72 1.66 1.65 1.55 1.49 1.65 1.65 1.72 1.70 1.63 1.73 1.70 1.68 1.65 1.60 1.56 1.47 1.40 1.37 1.41 1.40 1.36 1.40 1.35 1.35 1.39 1.31 1.29
1.23 1.15 1.13 1.28 1.34 1.44 1.42 1.47 1.43 1.52 1.71 1.79 1.77 1.75 1.69 1.74 1.73 1.69 1.74 1.54 1.61 1.55 1.51 1.55 1.68 1.66 1.75 1.69 1.65 1.58 1.53 1.46 1.44 1.46 1.48 1.44 1.40 1.38 1.32 1.29 1.30 1.29 1.29
1.22 1.19 1.19 1.28 1.35 1.41 1.38 1.49 1.43 1.61 1.78 1.82 1.78 1.77 1.79 1.83 1.85 1.84 1.79 1.69 1.57 1.49 1.54 1.54 1.56 1.63 1.65 1.61 1.54 1.54 1.54 1.54 1.58 1.60 1.61 1.58 1.47 1.44 1.41 1.33 1.32 1.33 1.40
1.22 1.26 1.25 1.32 1.38 1.39 1.53 1.59 1.50 1.66 1.81 1.78 1.82 1.85 1.88 1.87 1.78 1.85 1.83 1.66 1.57 1.47 1.57 1.59 1.56 1.60 1.62 1.62 1.51 1.53 1.57 1.57 1.57 1.55 1.58 1.59 1.58 1.56 1.53 1.44 1.40 1.39 1.42
1.30 1.32 1.45 1.48 1.44 1.45 1.59 1.72 1.64 1.66 1.78 1.82 1.86 1.85 1.91 1.94 1.83 1.71 1.73 1.66 1.59 1.51 1.43 1.46 1.45 1.51 1.56 1.58 1.52 1.56 1.60 1.57 1.52 1.49 1.48 1.48 1.49 1.45 1.49 1.48 1.41 1.33 1.31
1.32 1.33 1.45 1.58 1.51 1.45 1.61 1.70 1.63 1.62 1.70 1.79 1.89 1.79 1.96 1.96 1.87 1.72 1.60 1.62 1.54 1.41 1.36 1.36 1.36 1.46 1.40 1.43 1.50 1.56 1.58 1.53 1.50 1.45 1.42 1.38 1.39 1.39 1.36 1.45 1.42 1.40 1.34
1.40 1.38 1.50 1.54 1.59 1.59 1.75 1.67 1.54 1.69 1.71 1.76 1.83 1.87 2.01 1.98 1.89 1.74 1.68 1.64 1.54 1.40 1.33 1.35 1.30 1.35 1.36 1.34 1.35 1.34 1.43 1.43 1.45 1.39 1.37 1.39 1.38 1.39 1.38 1.29 1.39 1.41 1.38
1.42 1.38 1.45 1.48 1.53 1.56 1.56 1.55 1.40 1.46 1.58 1.65 1.76 1.86 1.91 1.89 1.86 1.70 1.70 1.59 1.67 1.43 1.29 1.30 1.21 1.27 1.24 1.35 1.16 1.20 1.23 1.29 1.29 1.32 1.37 1.38 1.39 1.45 1.47 1.48 1.39 1.42 1.43
1.41 1.34 1.41 1.45 1.56 1.52 1.46 1.44 1.37 1.47 1.65 1.73 1.83 1.83 1.89 1.98 1.78 1.68 1.62 1.51 1.46 1.34 1.30 1.31 1.25 1.26 1.21 1.19 1.05 1.10 0.90 1.02 1.18 1.24 1.31 1.33 1.37 1.42 1.44 1.52 1.51 1.44 1.37
1.38 1.35 1.35 1.39 1.40 1.44 1.42 1.49 1.51 1.61 1.70 1.71 1.77 1.77 1.73 1.80 1.78 1.72 1.64 1.53 1.45 1.36 1.33 1.33 1.26 1.26 1.08 1.09 1.18 1.05 0.89 0.84 1.04 1.20 1.17 1.23 1.29 1.34 1.41 1.44 1.45 1.47 1.45
1.43 1.48 1.37 1.39 1.37 1.41 1.37 1.31 1.34 1.30 1.39 1.56 1.71 1.73 1.68 1.71 1.72 1.76 1.59 1.56 1.54 1.49 1.35 1.37 1.38 1.38 1.15 0.97 1.15 1.30 1.29 1.22 0.97 0.88 1.10 1.17 1.26 1.23 1.31 1.34 1.37 1.40 1.43
1.39 1.39 1.36 1.41 1.43 1.45 1.38 1.30 1.24 1.28 1.47 1.56 1.67 1.67 1.65 1.70 1.73 1.78 1.77 1.69 1.51 1.46 1.43 1.44 1.43 1.35 1.25 1.23 1.18 1.25 1.23 1.22 1.25 1.05 0.93 1.05 1.20 1.23 1.29 1.30 1.32 1.36 1.44
1.40 1.38 1.37 1.38 1.38 1.39 1.36 1.27 1.23 1.24 1.35 1.48 1.57 1.59 1.56 1.59 1.64 1.66 1.72 1.66 1.63 1.52 1.48 1.43 1.46 1.43 1.35 1.39 1.35 1.28 1.20 1.18 1.16 1.13 1.08 1.12 1.10 1.19 1.25 1.27 1.31 1.36 1.40
Wind_Speed
16 17 17 16 16 15 15 15 14 13 12 11 10 9 8 7 6 5 4 4 4 4 5 5 6 6 6 7 7 8 9 10 10 11 12 12 13 13 14 14 14 15 15
18 17 18 16 16 15 15 14 13 12 11 10 10 9 7 6 6 6 5 5 5 5 5 6 7 7 8 8 8 8 9 10 11 12 12 12 13 14 14 14 14 15 15
18 18 18 17 16 15 14 14 13 11 11 11 10 9 9 8 7 6 6 5 5 6 6 7 7 8 8 9 9 10 10 11 12 12 12 13 13 14 14 14 15 15 14
19 18 17 16 15 14 13 13 11 11 11 11 10 10 9 8 7 6 6 6 6 6 7 8 9 9 10 10 10 12 13 13 12 12 12 13 13 13 13 14 14 14 14
18 17 17 15 14 13 13 13 12 12 11 11 10 10 9 9 9 9 9 9 8 8 9 10 10 11 11 11 11 12 12 13 12 12 12 12 13 13 13 13 13 13 12
18 17 16 15 14 13 13 12 12 11 10 10 10 10 10 10 11 12 12 12 11 11 11 12 12 12 12 12 13 13 14 13 12 12 12 12 12 12 12 12 12 12 11
17 16 15 14 13 13 12 12 11 11 10 10 10 10 10 11 13 13 13 13 13 13 13 14 14 14 14 13 14 14 13 12 11 11 11 12 12 12 12 12 12 12 12
16 15 15 14 13 12 12 12 11 11 10 10 10 10 11 12 13 14 14 14 15 16 16 17 17 16 16 16 14 13 12 11 11 11 11 12 12 12 12 12 12 12 13
15 15 14 14 13 12 12 12 11 11 10 10 10 10 11 12 13 13 14 15 15 17 17 17 17 16 16 15 15 13 12 11 11 12 12 12 12 13 13 13 13 14 14
15 14 14 13 13 13 12 12 11 11 10 10 11 11 12 12 12 13 13 14 15 16 16 16 16 16 16 15 13 12 12 12 12 12 12 12 12 13 13 14 14 14 14
14 14 14 13 13 13 12 12 11 11 11 11 11 12 12 13 12 12 13 13 14 14 14 15 15 15 14 13 13 13 12 12 12 12 12 12 12 12 13 13 13 14 14
15 14 14 14 13 13 13 12 12 11 12 12 12 12 12 12 12 12 12 13 13 13 13 14 13 13 12 12 13 14 13 12 13 12 12 12 12 12 12 12 13 13 13
15 14 14 14 13 13 13 13 12 12 12 11 11 11 11 11 12 12 12 12 12 12 13 12 12 11 11 12 12 12 13 13 13 12 12 12 12 11 12 11 12 12 12
15 15 15 14 14 14 13 13 12 11 11 10 10 9 9 9 10 10 10 10 11 11 11 11 11 10 10 10 11 11 12 12 12 12 12 12 11 11 11 11 11 11 11
16 15 16 15 14 14 14 13 12 11 10 9 9 8 8 8 9 9 9 9 9 10 11 11 11 12 11 11 11 12 12 12 12 13 12 12 12 11 11 11 10 10 10
16 16 17 16 15 15 14 13 12 11 10 8 9 8 8 7 6 7 7 8 8 9 10 10 10 9 10 10 11 11 12 12 12 12 12 11 11 10 10 9 9 9 9
17 17 17 17 16 15 15 13 12 11 9 9 9 8 7 6 6 6 7 7 8 8 9 9 9 9 9 10 10 11 11 11 11 11 11 11 10 9 9 8 8 8 9
18 18 18 17 16 16 14 13 12 11 9 9 8 8 6 7 6 6 7 7 8 8 8 8 9 9 10 10 11 10 10 10 10 10 10 10 10 9 9 9 9 10 10
19 19 18 17 16 16 15 13 13 11 10 10 9 7 7 6 7 7 7 8 8 8 8 8 8 9 9 10 9 9 9 9 9 9 9 10 9 10 10 10 10 11 12
20 20 19 18 16 16 14 13 13 11 10 10 9 7 7 7 7 7 7 8 8 7 8 8 8 9 9 9 8 8 8 7 7 7 7 8 9 10 11 11 12 12 13
22 21 20 19 18 17 15 14 14 12 11 10 10 8 7 7 7 7 8 8 7 7 7 8 8 7 8 8 8 7 6 5 5 5 6 7 8 9 11 12 13 13 13
24 24 22 20 19 17 16 14 14 13 12 10 10 8 7 7 7 8 7 7 6 7 7 8 7 8 7 7 7 6 5 5 5 5 6 7 8 9 10 12 12 12 12
24 26 23 21 20 18 17 16 14 15 12 11 11 9 8 8 7 7 7 7 7 7 8 8 7 7 8 8 6 5 5 6 7 7 7 8 9 10 10 11 11 11 11
24 27 25 22 20 19 18 18 17 15 13 12 12 10 9 8 8 7 7 7 6 7 7 7 7 7 7 6 6 6 6 7 8 8 9 10 10 10 11 11 10 9 9
24 27 27 24 21 20 19 20 18 17 16 13 13 12 10 8 8 8 7 6 6 6 6 7 7 6 6 7 7 7 7 8 8 9 9 10 10 11 11 10 9 8 7
23 27 28 26 23 22 20 20 20 19 17 16 14 14 12 9 8 8 7 6 6 6 6 7 7 6 7 7 7 8 9 8 9 10 10 9 10 10 9 8 8 7 6
Wind_Direction
144 140 138 132 129 127 127 127 122 119 117 115 114 113 110 108 107 111 118 123 125 127 123 120 119 118 117 114 109 104 101 99 96 93 91 85 82 84 85 86 87 89 91
142 142 139 134 130 128 126 127 124 119 115 113 111 106 102 99 99 102 107 112 118 125 129 127 122 118 115 114 112 110 107 104 101 98 93 86 86 88 87 87 89 90 92
142 141 139 135 132 129 128 127 123 118 114 110 106 99 94 90 89 92 101 106 112 117 125 129 127 122 118 113 112 112 113 109 105 101 94 89 90 89 88 88 90 90 91
142 142 140 138 134 130 130 130 123 118 113 108 102 95 90 83 81 86 92 103 108 117 125 127 127 125 119 115 115 114 111 110 106 101 96 92 91 91 89 90 89 91 90
144 143 142 140 137 132 131 129 124 119 114 107 101 94 85 78 79 87 92 97 101 106 120 124 125 123 119 117 118 122 119 109 106 102 98 95 92 92 90 90 89 89 89
146 145 145 142 140 136 133 131 126 121 114 108 101 92 84 83 85 91 93 93 92 102 112 120 122 121 118 117 114 116 112 107 104 101 99 95 93 93 91 91 90 87 87
147 147 147 145 142 140 137 134 128 122 115 110 102 95 90 91 93 93 94 91 88 99 107 117 119 117 114 114 115 107 108 105 102 101 100 96 95 94 91 89 90 86 85
150 151 150 148 145 142 140 136 129 123 117 110 103 98 98 98 96 95 94 93 90 96 105 112 114 114 109 107 110 108 104 102 99 100 102 101 97 94 90 89 89 89 87
154 154 153 151 149 145 142 138 132 125 117 111 106 103 103 103 99 97 96 96 95 98 104 108 111 112 112 108 105 103 101 101 99 101 102 100 97 94 90 90 91 90 88
156 157 156 153 152 148 146 141 135 127 118 113 109 106 106 105 104 102 100 98 98 101 105 108 110 110 108 106 103 100 97 99 101 104 103 102 97 94 92 93 91 89 87
159 160 159 155 154 151 149 144 138 129 122 117 112 108 107 106 103 107 103 103 102 104 107 111 112 110 109 103 97 98 94 95 102 106 104 102 100 96 96 94 91 90 87
163 164 163 160 158 154 151 148 142 134 128 120 115 112 109 107 103 105 105 103 108 107 109 113 115 114 107 109 100 95 91 93 103 105 103 102 102 98 96 94 93 91 88
167 167 168 165 163 159 155 152 146 140 134 125 120 116 112 109 106 102 104 108 103 109 108 111 117 116 110 109 105 98 92 94 102 102 102 102 102 99 96 95 95 91 87
174 173 172 170 167 163 158 155 150 146 141 134 129 125 118 116 114 110 106 103 107 108 116 107 117 112 113 115 113 101 97 97 100 99 100 101 101 99 97 97 94 89 85
176 177 176 173 170 167 163 157 154 151 148 142 138 134 130 125 120 118 109 112 110 108 116 116 112 110 111 110 115 109 100 102 101 99 97 98 98 99 98 95 92 89 85
179 179 177 175 173 170 167 163 159 155 151 147 143 137 133 133 132 129 122 117 118 114 117 121 122 116 115 111 113 112 106 105 101 99 97 96 97 97 96 93 91 87 83
178 173 174 175 174 173 171 170 165 162 156 154 148 145 140 137 137 135 138 128 126 122 119 122 122 120 122 117 116 115 113 108 104 98 98 95 94 94 95 94 90 87 83
177 176 173 173 175 176 176 177 177 173 167 163 157 156 153 139 137 139 133 135 133 130 125 121 120 124 123 121 119 118 114 109 106 99 96 96 91 90 94 96 93 90 88
183 180 178 178 179 178 178 179 180 178 175 169 163 157 160 150 140 138 136 138 137 132 129 123 125 126 126 124 122 128 123 114 109 101 98 94 90 89 93 98 97 95 92
189 186 182 182 181 179 182 183 183 178 176 173 169 162 160 145 148 140 137 143 140 137 141 130 129 132 132 129 125 124 129 124 118 110 104 101 95 95 95 99 102 100 96
193 190 187 184 183 184 185 184 181 177 176 175 172 169 160 153 154 155 148 145 145 145 149 147 138 134 137 139 129 122 127 135 131 125 117 111 108 105 103 103 103 103 99
194 193 191 190 188 189 187 184 184 183 177 178 176 171 166 160 154 159 160 158 159 154 148 154 148 143 146 146 134 118 108 117 131 137 131 125 121 117 114 113 108 103 100
196 194 194 193 193 193 193 189 186 184 184 185 180 177 170 168 162 164 164 158 148 154 154 156 151 153 147 146 144 122 114 124 115 118 122 130 128 124 123 121 114 108 99
201 199 197 196 196 196 197 195 194 191 191 190 187 179 174 172 169 159 156 157 161 159 165 165 160 152 159 158 148 141 127 125 121 115 121 124 124 127 128 124 119 112 101
201 200 200 200 199 199 198 199 198 196 197 196 190 188 183 180 176 171 171 166 157 162 164 168 166 162 165 158 157 145 138 131 124 125 127 124 126 129 127 125 122 114 103
206 203 203 203 203 202 202 202 202 201 200 198 195 194 192 185 183 182 182 177 171 165 163 168 170 167 161 159 161 155 145 140 131 127 129 131 131 129 129 128 125 118 104